Miami, FL

10:53 AM EDT on October 19, 2017 (GMT -0400)
Miami International

Weather History for KMIA - October, 2012

Change the Weather History Date:

Tuesday, October 23, 2012

  Actual Average Record
Temperature  
Mean Temperature 81 °F 79 °F  
Max Temperature 86 °F 85 °F 91 °F (2006)
Min Temperature 76 °F 72 °F 57 °F (1923)
Degree Days  
Heating Degree Days 0 0  
Month to date heating degree days 0 0  
Since 1 July heating degree days 0 0  
Cooling Degree Days 16 14  
Month to date cooling degree days 387 357  
Year to date cooling degree days 4170 3969  
Growing Degree Days 30 (Base 50)    
Moisture  
Dew Point 67 °F    
Average Humidity 67    
Maximum Humidity 79    
Minimum Humidity 55    
Precipitation  
Precipitation T in 0.15 in 2.66 in (1969)
Month to date precipitation 4.78 5.17  
Year to date precipitation 84.29 55.43  
Snow  
Snow 0.00 in - - ()
Month to date snowfall 0.0  
Since 1 July snowfall 0.0  
Since 1 September snowfall 0.0  
Snow Depth 0.00 in    
Sea Level Pressure  
Sea Level Pressure 29.95 in    
Wind  
Wind Speed 11 mph (ENE)    
Max Wind Speed 23 mph    
Max Gust Speed 28 mph    
Visibility 10 miles    
Events      
T = Trace of Precipitation, MM = Missing Value Source: NWS Daily Summary

Daily Weather History Graph

Daily Weather History Graph

Search for Another Location

Airport or City:

Trip Planner

Search our weather history database for the weather conditions in past years. The results will help you decide how hot, cold, wet, or windy it might be!

Date:

Astronomy

Oct. 23, 2012 Rise Set
Actual Time 7:24 AM EDT 6:45 PM EDT
Civil Twilight 7:01 AM EDT 7:09 PM EDT
Nautical Twilight 6:34 AM EDT 7:36 PM EDT
Astronomical Twilight 6:07 AM EDT 8:03 PM EDT
Moon 2:58 PM EDT (10/23) 1:49 AM EDT (10/23)
Length of Visible Light 12h 08m
Length of Day
11h 21m
Waxing Gibbous, 66% of the Moon is Illuminated
Oct 23
Waxing Gibbous
Oct 29
Full
Nov 6
Last Quarter
Nov 13
New
Nov 20
First Quarter

Hourly Weather History & Observations

Time (EDT) Temp. Heat Index Dew Point Humidity Pressure Visibility Wind Dir Wind Speed Gust Speed Precip Events Conditions
12:53 AM 79.0 °F - 64.0 °F 60% 29.99 in 10.0 mi ENE 10.4 mph - N/A   Scattered Clouds
2:53 AM 78.1 °F - 64.9 °F 64% 29.97 in 10.0 mi ENE 12.7 mph - N/A   Partly Cloudy
3:53 AM 78.1 °F - 64.0 °F 62% 29.96 in 10.0 mi ENE 15.0 mph 21.9 mph N/A   Partly Cloudy
4:53 AM 78.1 °F - 63.0 °F 60% 29.95 in 10.0 mi ENE 8.1 mph - N/A   Clear
5:53 AM 78.1 °F - 62.1 °F 58% 29.94 in 10.0 mi ENE 8.1 mph - N/A   Partly Cloudy
6:53 AM 77.0 °F - 62.1 °F 60% 29.95 in 10.0 mi NE 6.9 mph - N/A   Scattered Clouds
7:53 AM 77.0 °F - 64.0 °F 64% 29.96 in 10.0 mi NE 5.8 mph - N/A   Mostly Cloudy
8:53 AM 78.1 °F - 64.9 °F 64% 29.97 in 10.0 mi Calm Calm - N/A   Mostly Cloudy
9:53 AM 81.0 °F 83.0 °F 66.0 °F 60% 29.98 in 10.0 mi ENE 8.1 mph - N/A   Mostly Cloudy
10:53 AM 82.9 °F 84.6 °F 64.9 °F 54% 29.99 in 10.0 mi East 16.1 mph 21.9 mph N/A   Mostly Cloudy
11:53 AM 82.9 °F 85.4 °F 66.9 °F 58% 29.98 in 10.0 mi NE 15.0 mph 24.2 mph N/A   Mostly Cloudy
12:53 PM 82.4 °F 85.4 °F 68.0 °F 62% 29.96 in 10.0 mi ENE 15.0 mph 23.0 mph N/A   Mostly Cloudy
1:53 PM 82.9 °F 85.4 °F 66.9 °F 58% 29.93 in 10.0 mi ENE 12.7 mph 20.7 mph N/A   Mostly Cloudy
2:53 PM 84.0 °F 87.8 °F 69.1 °F 61% 29.92 in 10.0 mi ENE 12.7 mph 21.9 mph N/A   Mostly Cloudy
3:53 PM 84.0 °F 87.0 °F 68.0 °F 58% 29.91 in 10.0 mi NE 13.8 mph 24.2 mph N/A   Mostly Cloudy
4:53 PM 82.0 °F 85.5 °F 69.1 °F 65% 29.92 in 10.0 mi NE 18.4 mph 24.2 mph N/A   Mostly Cloudy
5:53 PM 82.0 °F 85.5 °F 69.1 °F 65% 29.92 in 10.0 mi NE 16.1 mph 23.0 mph N/A   Mostly Cloudy
6:53 PM 80.6 °F 83.9 °F 69.8 °F 70% 29.93 in 10.0 mi NE 9.2 mph 21.9 mph N/A   Mostly Cloudy
7:53 PM 80.1 °F 83.2 °F 70.0 °F 71% 29.95 in 10.0 mi ENE 12.7 mph - N/A   Mostly Cloudy
8:53 PM 80.1 °F 83.2 °F 70.0 °F 71% 29.96 in 10.0 mi ENE 12.7 mph 19.6 mph N/A   Mostly Cloudy
9:53 PM 80.1 °F 83.2 °F 70.0 °F 71% 29.97 in 10.0 mi ENE 9.2 mph 21.9 mph N/A   Mostly Cloudy
10:53 PM 79.0 °F - 71.1 °F 77% 29.97 in 10.0 mi NE 12.7 mph 19.6 mph 0.00 in   Mostly Cloudy
11:53 PM 79.0 °F - 71.1 °F 77% 29.96 in 10.0 mi NE 10.4 mph 21.9 mph N/A   Mostly Cloudy